Wind_Speed
47 50 52 52 51 49 45 41 40 41 40 38 36 36 39 42 45 44 41 38 37 37 36 34 33 30 27 28 31 30 28 25 23 20 15 15 16 16 16 16 15 14 14 15 16 16 16 16 17 17 16 16 17 17 18 18 19 20 21 21 21 21 20 19 18 19 19 18 18 18 20 21 21 22 24 26 27 27 29 30 31 32 33 35 37
43 45 50 53 52 49 48 46 44 44 42 40 37 36 37 42 44 42 39 36 35 38 38 36 35 31 29 30 32 31 28 25 23 20 15 14 16 17 17 17 16 15 14 14 15 15 16 16 17 17 16 16 17 17 18 19 20 21 21 21 21 21 21 21 20 20 20 20 20 20 21 22 22 23 25 27 28 29 30 31 31 32 33 35 37
45 44 46 51 52 50 49 48 47 46 44 41 39 37 36 40 43 38 33 33 34 36 37 36 35 33 31 32 33 31 28 26 24 20 15 14 15 17 17 18 17 16 15 14 14 15 15 16 17 17 16 16 17 18 19 19 20 20 21 21 22 22 22 22 22 22 22 22 22 22 23 23 24 24 26 28 29 30 31 31 32 32 33 34 37
49 48 46 47 50 52 51 51 49 47 45 43 41 38 34 37 42 36 28 30 33 34 36 35 34 33 33 34 34 31 27 26 25 21 15 13 15 17 18 18 18 17 15 14 15 15 15 16 17 17 17 16 17 19 19 20 20 20 21 22 22 23 23 24 24 24 23 23 24 24 24 25 26 26 27 29 30 31 32 32 32 33 33 34 36
55 53 50 47 48 51 52 52 50 46 45 43 41 40 35 35 40 37 29 29 32 35 36 35 34 33 34 35 36 32 27 26 26 23 16 14 15 17 18 18 18 17 16 15 15 15 15 17 17 17 17 17 18 19 20 20 20 21 21 22 23 23 24 24 25 25 25 25 25 25 26 27 28 28 29 31 32 33 33 33 33 34 33 34 35
59 58 55 51 49 49 49 50 49 45 44 43 41 40 37 37 41 39 32 29 33 36 38 39 38 36 36 39 39 34 29 28 27 24 19 15 15 18 19 19 18 18 17 16 16 15 16 17 18 18 18 18 19 20 20 21 21 21 22 22 24 24 25 25 25 26 26 26 26 26 27 28 29 30 31 32 34 35 35 34 34 34 34 34 35
60 61 60 59 55 52 48 47 47 44 43 43 41 39 38 39 42 38 30 29 33 37 40 41 40 38 38 42 43 38 32 30 28 25 21 18 17 19 20 19 19 18 18 17 16 16 16 17 18 19 19 20 20 21 21 21 21 22 22 23 23 24 25 26 26 26 26 26 26 27 28 29 30 31 32 33 34 35 35 35 35 35 34 33 34
55 59 62 62 59 55 51 49 46 44 42 42 41 40 39 40 42 38 32 31 34 37 40 41 40 38 38 42 45 41 34 31 29 26 23 20 19 20 20 20 19 19 18 18 17 16 16 17 19 19 20 20 21 22 22 22 22 22 23 23 23 24 25 26 26 26 26 26 26 26 27 29 30 31 32 33 35 36 36 36 35 35 34 33 34
53 57 61 63 59 55 54 52 49 46 43 42 43 43 42 42 44 41 36 34 36 39 41 41 41 39 38 42 47 45 37 32 31 27 24 23 23 22 21 21 20 20 19 19 18 17 17 18 19 20 20 21 22 23 24 24 23 23 24 23 23 24 24 25 26 26 26 25 25 25 27 29 31 32 33 34 36 37 38 37 35 34 34 34 34
55 56 59 63 62 58 56 55 53 50 47 44 44 45 45 46 47 45 40 38 38 40 43 44 43 40 38 40 46 47 40 35 33 30 26 25 26 24 22 21 21 21 20 20 20 19 18 18 19 20 20 21 22 24 25 25 25 24 24 24 24 24 25 25 26 26 26 25 25 26 27 29 32 33 34 36 37 38 39 38 35 33 33 34 35
57 56 56 60 66 65 60 58 56 52 49 47 45 46 46 47 48 46 43 40 39 41 43 45 44 42 40 41 45 47 41 37 36 33 28 28 28 27 25 23 22 22 22 21 21 21 20 19 19 20 21 21 22 24 25 26 26 25 25 25 26 26 26 26 26 27 27 27 27 27 28 30 32 34 35 37 38 39 39 38 35 32 32 34 36
52 52 50 54 65 68 63 59 58 55 52 49 48 47 46 47 47 47 45 43 41 41 43 45 45 43 40 40 43 44 41 38 38 35 31 31 30 28 27 25 24 24 24 23 23 23 22 21 19 20 22 22 22 24 26 27 27 26 26 26 27 27 27 28 28 28 28 28 29 29 30 32 33 34 36 37 38 39 39 38 36 32 31 33 36
49 46 44 46 56 64 63 60 58 56 54 52 50 48 46 46 46 46 46 46 44 44 43 43 45 43 38 37 40 42 41 41 40 37 35 34 32 30 29 27 25 25 25 25 25 25 24 23 21 20 22 24 24 24 26 27 28 27 27 27 28 28 29 29 29 29 30 30 30 31 33 34 34 35 36 36 37 39 39 38 35 32 32 34 35
53 48 46 45 49 57 62 62 61 57 54 53 54 53 50 48 46 46 46 47 48 48 44 43 44 42 38 37 39 42 43 43 42 40 38 36 34 32 31 29 27 26 27 26 26 27 26 25 23 21 23 25 25 26 26 27 28 28 28 29 29 29 30 30 30 31 31 31 32 33 35 36 36 37 38 37 36 37 38 37 35 33 34 35 35
52 47 48 49 50 54 59 62 63 61 57 55 55 55 54 53 51 48 46 47 49 48 44 43 44 42 38 37 40 43 45 45 44 42 40 38 36 34 33 31 28 27 27 28 28 28 27 27 25 23 24 26 27 28 28 28 28 29 29 30 31 31 31 31 32 32 32 33 33 34 36 37 37 39 40 39 38 37 37 36 34 34 35 35 34
52 49 48 50 52 55 59 62 63 63 61 60 58 57 56 55 55 53 49 47 48 46 44 43 44 43 40 38 41 43 45 46 46 45 43 41 39 37 36 34 31 28 27 28 28 28 28 28 27 24 25 27 29 30 31 31 30 29 30 32 32 33 33 33 33 34 34 34 35 36 37 38 38 39 40 40 40 39 37 35 33 34 35 34 34
55 53 53 54 54 56 59 61 61 61 62 63 62 61 59 58 58 57 52 49 47 44 42 42 45 44 41 39 40 41 43 46 47 47 46 43 41 40 38 36 33 30 29 29 29 29 29 29 28 26 26 28 31 32 33 34 32 31 32 33 33 34 33 33 34 35 34 35 36 38 38 38 39 40 40 40 40 40 38 35 33 33 34 33 33
57 56 56 57 58 59 60 59 59 60 61 63 63 62 62 60 59 58 55 52 49 45 41 42 45 46 43 40 39 39 42 45 47 48 47 46 45 43 41 39 37 33 31 31 30 29 30 30 30 28 27 29 32 34 35 35 34 33 33 34 34 33 33 34 35 35 34 35 37 39 39 39 40 41 40 40 40 40 38 35 34 33 33 33 33
59 58 57 57 59 62 63 62 60 59 60 62 62 62 61 60 59 57 56 54 52 48 44 43 45 47 45 42 39 39 42 46 48 49 49 48 48 47 45 42 40 37 35 34 32 30 30 31 32 31 30 31 34 36 36 37 36 36 35 35 34 34 35 37 36 34 34 36 38 39 40 39 40 41 41 40 39 39 37 34 33 33 32 33 33
59 57 58 58 59 61 64 65 63 61 61 62 62 61 61 62 61 58 56 55 54 52 48 46 46 48 47 44 42 41 43 47 49 49 50 50 50 50 48 45 42 40 39 38 35 32 31 32 33 32 32 32 34 37 38 38 38 38 37 36 35 36 36 37 36 35 36 37 38 39 39 39 39 40 41 40 38 36 35 34 33 33 33 33 33
61 58 58 58 58 60 62 63 63 63 63 63 63 63 63 62 62 61 59 56 54 54 53 50 49 49 49 47 45 44 45 48 50 51 52 52 52 52 51 49 46 44 42 42 39 34 32 33 34 35 34 34 36 39 40 39 39 39 38 37 37 37 37 37 36 36 37 38 38 38 38 37 38 39 39 38 36 34 34 34 33 34 34 34 33
62 60 58 58 59 59 61 63 63 63 64 64 64 64 63 62 61 61 59 57 55 55 54 53 51 50 49 50 48 46 46 48 49 51 52 53 54 55 54 52 51 48 45 43 42 37 33 33 34 36 37 37 37 39 39 40 40 39 38 38 39 39 38 38 37 36 37 37 37 38 37 36 37 38 38 37 35 33 33 34 34 34 34 34 33
62 60 58 58 60 60 62 63 64 63 63 64 64 64 63 62 61 60 59 59 58 55 54 54 54 51 50 51 50 48 47 47 48 48 48 49 52 55 56 55 54 51 47 45 43 39 36 34 35 38 39 39 37 38 38 39 39 38 37 37 40 40 39 38 38 37 37 36 37 38 38 37 37 38 38 38 35 33 33 34 35 35 34 33 33
59 59 58 58 59 60 61 62 63 63 62 62 63 64 63 63 64 62 60 61 61 58 55 55 54 53 52 51 51 50 49 48 48 48 47 48 49 53 56 57 55 52 49 47 45 42 39 37 37 39 39 38 38 38 38 38 38 38 36 37 39 40 39 39 38 37 36 35 36 37 38 38 39 39 39 38 36 34 34 35 35 35 33 32 33
58 58 58 57 57 58 60 61 61 61 61 61 61 62 63 64 65 64 61 60 60 60 59 58 56 55 54 52 52 52 51 50 50 49 48 49 50 51 53 55 55 53 51 49 46 44 41 39 39 40 39 38 39 39 38 37 38 37 37 38 40 40 39 38 38 37 37 37 37 37 37 39 40 40 39 38 36 35 35 35 35 34 33 31 32
54 56 56 55 55 56 58 59 60 60 60 60 58 60 62 64 64 65 63 61 59 59 59 59 58 58 57 55 53 53 53 52 52 51 48 48 49 50 52 53 54 54 53 50 47 46 44 41 41 41 41 40 40 39 38 38 38 38 38 38 38 37 38 38 38 38 38 39 39 38 38 39 42 41 39 38 37 36 36 36 36 34 31 30 31
51 52 53 52 53 55 55 56 58 59 59 59 58 58 60 63 64 65 66 64 63 61 60 59 59 59 59 57 55 54 54 53 53 52 50 48 48 50 52 54 55 55 54 50 48 47 46 43 42 43 43 40 38 37 38 39 40 40 40 39 36 36 38 40 40 40 39 38 38 39 39 41 42 41 39 38 37 36 36 37 36 33 30 29 30
52 50 50 50 50 51 53 53 55 57 57 57 59 59 59 61 62 63 63 63 63 63 63 63 60 57 56 56 56 56 54 52 51 51 51 50 51 52 54 55 56 56 54 50 48 49 48 45 44 44 42 40 39 39 40 41 42 42 43 41 40 40 41 42 42 41 38 38 39 40 41 42 41 39 38 38 37 37 37 37 35 32 30 29 29
54 50 47 47 46 46 49 49 50 52 54 55 57 58 59 60 60 61 61 61 60 61 62 63 62 59 56 54 55 57 56 52 50 50 51 54 56 57 56 57 58 57 55 52 51 50 48 45 44 44 43 41 42 42 42 42 42 44 45 45 45 44 43 42 42 41 40 41 41 41 41 42 41 39 38 38 39 38 38 37 35 32 30 29 29
53 50 45 44 43 43 45 46 46 48 49 51 52 54 56 57 58 58 58 58 57 57 58 58 59 60 58 55 55 57 58 57 55 54 55 58 60 59 58 58 59 58 57 56 54 52 49 47 45 44 43 43 43 42 42 42 43 44 46 47 47 46 44 42 42 42 42 42 42 41 40 42 43 42 39 38 39 39 39 38 35 33 31 30 29
46 47 44 42 41 40 40 42 43 44 46 47 49 50 51 53 54 54 55 55 55 54 54 54 54 55 56 57 58 59 60 60 60 61 61 60 59 59 59 59 59 60 60 59 56 53 50 49 47 44 43 43 42 41 42 43 44 45 47 48 48 46 44 42 42 42 41 41 42 42 41 43 45 45 40 38 40 40 40 39 36 34 33 31 29
43 43 41 38 36 36 35 36 36 38 40 43 45 47 49 50 50 50 51 52 53 53 53 53 52 51 53 55 56 55 56 58 60 62 63 62 60 59 59 59 59 60 61 59 56 53 49 48 46 44 43 43 42 42 43 45 45 46 47 48 47 46 44 42 41 42 42 43 45 45 43 45 47 46 42 40 41 41 40 39 36 35 34 32 30
40 41 41 38 35 35 35 35 36 37 38 40 43 46 48 48 48 47 47 48 50 51 51 52 52 52 52 53 54 53 52 55 58 62 64 64 63 62 61 59 58 58 59 58 55 52 50 48 46 44 44 43 44 45 46 46 47 47 47 47 47 46 44 43 42 44 44 45 46 47 48 51 52 48 44 43 43 42 40 38 37 36 35 33 31
30 35 38 37 35 35 35 34 35 35 36 39 42 43 45 47 46 45 45 46 46 47 48 49 50 51 52 54 55 53 52 53 57 61 63 66 66 65 62 60 58 56 56 55 52 50 51 50 46 44 45 45 46 47 47 47 47 48 48 47 47 46 45 43 43 44 45 46 48 50 53 57 56 50 44 43 44 42 39 38 37 37 36 34 32
21 27 31 32 32 32 33 34 35 34 34 35 38 39 40 42 42 42 43 43 42 43 44 45 46 48 49 52 54 55 54 54 54 55 59 62 64 65 65 62 59 56 55 53 49 47 49 50 46 44 45 46 47 47 48 48 48 48 48 47 46 45 44 43 42 42 43 46 50 52 56 59 56 47 41 42 43 41 38 38 38 38 37 36 33
15 21 28 32 33 33 33 34 36 36 35 36 37 37 37 37 38 40 42 42 41 41 42 44 45 46 47 49 51 53 55 54 53 54 57 59 61 63 64 60 57 55 54 54 51 47 46 47 45 44 44 45 47 48 49 49 49 49 48 47 46 45 44 43 43 42 43 46 49 51 54 56 51 45 42 42 43 41 39 38 38 38 38 37 34
7 10 15 20 27 33 37 38 38 38 37 37 38 36 34 34 35 37 39 40 41 41 42 43 44 45 46 48 49 49 49 50 51 51 52 54 56 58 58 57 55 53 52 53 52 49 46 46 46 46 46 46 48 49 50 50 50 49 48 47 47 46 46 46 46 46 47 49 50 50 51 51 49 47 46 46 44 43 41 39 39 39 38 37 34
7 7 7 8 11 17 24 31 36 39 40 40 39 37 35 36 36 36 36 36 38 40 42 42 43 42 40 41 42 43 43 45 48 49 48 49 51 53 53 55 56 55 53 53 53 50 48 48 47 47 48 48 49 51 51 51 51 50 50 49 48 48 48 48 48 49 51 52 51 50 51 52 50 50 50 49 47 46 44 41 39 39 38 36 34
9 10 10 9 8 8 10 14 20 25 29 34 37 36 35 36 37 38 38 37 37 38 40 42 42 40 35 32 33 36 36 37 39 45 47 46 48 51 50 50 52 53 54 54 53 51 50 50 49 49 49 50 51 53 53 53 53 53 52 52 52 52 51 51 50 50 53 54 53 51 52 53 53 53 53 51 50 49 47 43 40 39 38 35 33
9 10 10 10 10 10 10 11 12 12 15 21 27 31 32 32 32 35 37 39 39 39 41 42 42 39 35 32 31 34 37 34 32 34 38 38 40 46 47 44 45 47 49 50 51 51 52 52 51 50 51 52 53 55 55 55 55 54 54 55 55 54 54 53 51 50 52 54 54 54 55 56 56 57 56 54 53 52 47 42 39 38 36 34 32
11 11 11 10 10 10 11 12 13 13 13 16 20 24 26 26 27 28 30 32 35 37 40 43 43 41 38 35 33 36 42 39 30 28 32 32 33 39 43 43 45 47 48 49 50 51 52 52 52 52 52 53 55 56 56 56 56 56 56 56 56 56 55 54 52 51 52 53 53 56 57 56 56 57 56 55 55 52 45 40 39 37 34 32 31
12 12 12 12 11 11 11 12 13 14 15 16 18 19 21 22 22 23 24 24 26 28 30 34 36 35 34 34 34 37 42 42 35 30 31 33 34 37 39 40 43 45 47 49 50 52 52 52 52 52 53 55 56 57 57 57 58 58 58 58 57 56 55 53 51 51 52 51 52 55 56 54 53 54 56 56 55 49 42 39 38 35 32 32 32
14 13 13 13 13 13 13 13 13 13 14 15 17 18 20 21 22 24 24 23 24 25 25 26 28 28 28 30 32 33 36 38 37 36 35 36 37 39 40 41 42 45 47 49 51 52 52 52 53 53 55 56 58 58 58 59 60 60 59 58 57 55 53 52 52 51 51 50 51 52 52 49 48 51 55 56 54 46 40 38 36 33 32 33 33
14 14 14 14 14 14 14 15 15 15 15 15 16 17 18 19 21 22 24 24 25 26 27 27 28 29 30 30 31 32 33 34 34 35 36 38 39 40 41 42 44 46 48 49 51 52 53 54 55 56 57 57 58 59 60 60 60 59 57 57 56 54 53 52 52 52 51 50 50 50 48 46 46 51 55 56 51 43 37 36 35 33 32 33 33
15 15 15 15 16 16 16 15 15 15 15 16 17 18 18 19 19 20 21 22 24 25 27 28 29 31 32 33 34 35 36 36 37 37 38 39 40 41 43 44 46 48 49 51 52 54 55 56 57 58 58 59 59 60 60 60 58 56 55 54 54 54 53 53 53 52 50 49 48 48 46 46 48 53 56 52 45 38 36 35 34 33 33 33 34
17 17 17 17 17 17 18 17 17 17 17 16 16 18 20 21 21 21 21 22 23 24 25 26 28 29 31 32 34 35 37 38 40 41 41 42 43 45 46 47 49 50 52 53 54 55 56 57 58 58 58 58 57 57 57 56 55 54 54 53 52 52 52 51 50 49 47 46 46 46 46 48 52 53 51 44 38 35 34 32 31 32 33 35 36
21 20 19 19 19 19 20 19 19 20 20 18 17 19 20 22 23 23 22 23 24 25 26 27 28 29 30 31 32 34 35 36 38 39 41 42 43 45 46 47 48 49 50 51 52 53 53 53 53 53 53 53 52 51 51 50 49 48 47 47 46 45 45 45 45 45 44 44 44 43 46 49 49 46 41 36 33 32 31 31 32 34 36 37 37
24 23 23 23 22 22 21 21 22 22 23 22 21 20 21 23 24 24 23 23 24 26 27 28 29 30 31 32 32 33 34 35 36 37 38 38 40 41 42 43 44 45 46 46 46 46 47 47 46 46 46 45 44 43 41 40 38 37 37 38 39 40 41 43 42 40 38 39 40 42 46 46 44 40 36 33 32 32 34 36 38 38 38 38 37
24 25 25 25 25 25 24 24 24 25 25 25 24 23 23 24 25 26 25 25 25 26 27 28 29 30 31 32 33 34 34 35 36 36 37 38 38 39 40 41 41 40 40 40 40 41 41 41 40 39 38 35 33 32 31 29 28 29 30 32 34 35 36 37 36 34 34 36 39 41 42 42 41 39 36 33 33 35 38 39 39 39 38 38 38
24 25 25 26 27 27 27 27 27 27 28 28 27 27 26 26 27 28 27 27 28 28 29 29 30 30 31 31 32 32 33 34 35 36 37 37 38 38 39 39 39 37 35 35 36 37 37 37 36 35 33 31 30 29 28 27 27 27 27 27 26 26 27 27 27 27 29 32 36 38 38 38 38 37 35 33 34 36 38 38 39 39 39 39 38
26 26 26 26 27 27 27 28 28 29 30 31 31 30 30 29 30 30 30 30 30 30 31 31 31 31 32 33 33 33 33 33 34 35 36 36 37 37 37 37 37 37 36 36 36 37 37 37 36 36 34 32 31 31 30 30 30 30 29 28 28 28 28 28 28 28 29 30 32 34 34 35 35 34 34 34 35 37 39 40 40 40 40 39 39
Wind_Direction
224 227 228 231 234 235 234 234 236 236 239 242 245 248 242 228 220 223 228 231 236 239 240 242 244 244 247 252 254 256 261 266 269 275 289 300 302 303 302 302 299 296 296 297 299 300 301 299 297 296 298 300 302 305 308 309 308 308 309 311 313 314 314 315 314 313 313 313 311 307 307 310 314 318 322 324 326 325 324 326 326 323 322 324 327
220 225 226 227 230 232 233 235 237 238 239 241 242 243 236 223 219 224 228 231 236 239 239 241 243 245 247 249 251 254 259 263 266 272 285 295 299 301 301 301 300 298 298 298 301 302 302 301 298 297 298 299 300 304 306 307 307 308 310 311 312 313 313 313 313 312 311 310 310 307 307 309 313 317 320 324 325 325 324 326 326 323 322 324 326
222 224 226 225 226 229 232 234 236 238 238 240 240 238 234 225 221 225 230 232 235 236 239 243 245 247 248 248 250 252 258 262 263 269 280 290 296 298 298 299 299 300 300 299 302 304 303 302 300 298 299 298 299 302 304 305 306 307 310 312 312 312 312 313 312 312 311 311 310 309 308 310 313 316 319 322 324 324 324 324 325 323 321 323 326
225 227 226 226 225 226 229 231 234 236 236 237 237 236 236 229 222 226 235 233 231 235 238 242 246 247 248 249 250 252 257 260 262 265 273 284 292 294 294 296 297 299 301 300 302 305 305 303 300 300 300 299 299 301 303 304 306 308 309 311 312 312 313 313 313 314 314 312 311 311 311 312 314 316 319 321 323 323 323 323 322 321 320 322 324
226 226 225 225 224 223 227 229 231 234 234 234 235 235 237 234 228 232 238 231 230 234 237 241 244 246 249 250 251 252 253 254 258 262 266 275 285 288 289 292 293 296 300 301 302 306 306 304 302 302 302 301 300 301 302 305 307 308 309 310 311 312 313 314 315 316 317 315 314 314 314 315 316 317 319 321 322 322 321 321 321 320 319 320 323
229 225 222 222 222 221 225 228 229 232 233 234 235 235 237 237 233 235 237 231 230 235 237 241 242 243 247 249 250 250 249 250 254 258 262 268 277 282 285 287 289 292 296 298 300 304 307 306 304 304 304 303 302 301 303 305 307 307 307 309 311 313 313 314 316 318 319 319 319 319 318 318 317 318 320 322 322 321 320 320 319 318 317 318 321
232 229 224 221 220 221 226 229 229 229 231 233 234 234 236 236 230 230 234 232 232 236 238 240 242 241 244 248 249 248 247 246 249 254 259 264 270 276 280 283 285 287 292 295 297 301 305 306 307 307 307 305 303 302 302 303 304 305 306 308 311 313 314 315 317 319 321 321 322 321 321 320 319 320 323 325 324 323 322 321 318 315 315 317 320
230 231 229 225 222 222 227 231 230 227 228 231 233 232 235 233 225 226 237 236 234 239 241 241 241 240 242 247 248 246 244 243 246 251 257 261 264 270 275 280 283 284 287 289 292 296 301 305 308 310 309 307 304 302 302 302 303 303 304 307 310 311 313 315 317 319 321 322 322 322 322 320 320 322 325 326 326 325 323 321 318 314 313 315 319
226 227 230 229 225 222 225 230 230 226 226 230 231 231 232 230 225 230 240 237 236 241 244 244 242 239 241 246 247 245 241 239 243 249 255 258 262 266 271 278 280 281 283 285 288 291 296 303 308 309 310 308 305 302 301 302 302 302 303 306 308 310 311 313 315 317 320 321 320 320 320 319 319 322 324 325 326 326 324 321 317 313 311 313 316
225 224 226 225 222 220 223 227 228 227 227 229 230 230 231 230 229 234 237 234 235 240 243 245 245 243 243 246 247 245 240 237 243 249 253 255 260 265 270 275 278 278 280 282 285 287 290 299 306 307 308 308 306 302 301 301 302 302 304 305 307 307 308 310 311 313 316 317 317 317 318 317 318 320 322 323 325 326 326 323 318 313 310 311 315
223 224 224 221 217 217 221 225 228 228 229 230 230 230 231 231 231 234 234 231 233 238 241 244 246 246 246 245 243 242 238 238 244 250 252 252 256 263 269 274 277 278 278 279 282 283 286 293 302 305 306 306 306 302 299 299 300 301 303 304 304 305 305 306 306 309 311 312 313 314 314 314 316 318 320 321 323 325 325 324 319 312 309 311 314
219 221 222 219 215 215 219 224 227 230 231 232 233 233 233 233 232 233 232 231 234 237 240 244 246 246 246 244 240 237 236 238 244 248 250 251 254 260 267 273 277 279 278 278 279 280 283 287 295 302 303 302 303 301 298 297 298 299 300 301 301 301 302 302 303 305 307 308 309 310 311 312 314 316 317 319 322 324 324 322 317 311 310 312 313
225 226 224 219 215 215 219 223 227 230 232 232 232 233 234 234 235 235 233 233 236 238 240 243 245 245 243 241 237 234 233 237 242 246 249 251 253 257 264 271 276 278 278 277 277 279 280 282 288 296 299 298 299 299 297 296 296 297 298 298 298 298 298 299 301 302 303 305 307 308 308 310 312 313 313 317 322 323 321 319 314 310 310 312 314
233 235 233 229 222 218 220 223 225 227 229 229 229 232 234 235 237 238 237 235 236 238 240 243 245 243 241 238 235 232 232 236 241 244 247 250 253 256 261 268 272 276 278 277 276 277 278 280 283 289 294 295 296 296 296 295 295 295 296 297 296 296 297 298 299 300 301 303 305 306 306 307 309 309 310 315 320 321 319 316 311 308 309 312 315
230 232 231 230 228 224 222 223 223 224 225 226 227 229 232 234 237 238 237 237 236 236 239 243 243 242 238 236 235 234 234 237 241 244 246 249 251 254 259 264 269 273 276 276 275 275 276 277 279 285 290 292 293 294 294 294 294 295 295 295 295 296 297 297 298 298 299 301 302 303 303 304 306 307 309 314 318 318 318 315 309 304 307 311 315
224 225 224 223 223 225 225 224 224 223 224 225 225 226 229 231 234 235 237 237 234 233 237 240 240 240 237 235 236 237 237 239 241 244 246 247 251 254 257 261 266 271 274 275 274 274 275 276 277 281 288 290 291 292 292 293 294 296 296 295 296 297 297 297 297 297 298 300 301 301 301 302 304 305 307 311 314 315 316 315 308 303 306 310 313
226 223 222 221 220 222 224 225 225 226 226 227 226 226 227 229 229 231 235 236 233 233 237 237 238 239 237 235 236 238 239 240 241 244 247 249 253 256 258 260 264 269 272 274 274 274 275 275 275 277 284 288 289 290 292 293 294 295 295 295 296 297 297 296 295 295 297 299 299 299 300 301 302 303 305 308 310 311 313 313 308 304 306 309 311
228 225 223 222 222 222 223 222 222 223 226 229 230 229 228 227 227 229 231 232 233 237 238 237 237 238 237 236 237 237 238 239 241 245 249 252 255 258 259 260 263 267 271 273 275 275 275 274 273 275 280 285 287 289 291 293 294 294 294 294 296 296 295 292 291 294 297 297 297 298 300 301 302 303 304 306 307 308 309 309 307 305 306 308 310
228 227 225 223 223 225 225 224 222 222 223 226 229 231 231 229 227 228 229 230 232 237 239 237 237 238 237 235 235 236 238 240 242 245 249 253 256 258 259 260 262 265 269 272 275 275 274 273 273 274 278 282 285 287 289 292 293 293 292 294 297 295 291 290 291 293 294 294 296 299 301 303 303 303 304 305 305 305 306 305 305 304 305 307 309
227 227 226 225 224 225 228 228 226 225 225 225 226 229 232 233 232 229 229 229 231 234 237 239 238 238 238 235 233 234 237 239 242 245 248 252 255 257 258 259 261 263 265 269 273 274 272 271 272 273 275 279 281 284 287 290 293 293 293 295 296 293 290 290 291 291 292 294 298 301 303 304 304 304 306 306 305 303 303 302 303 303 304 306 309
225 224 224 224 223 223 227 229 229 227 227 227 228 229 231 234 236 233 229 229 231 232 236 240 240 237 237 237 234 233 234 238 241 244 247 251 254 257 258 259 260 261 262 265 270 273 270 268 269 272 273 274 278 281 285 288 291 293 295 295 294 292 291 291 289 289 293 297 299 301 302 303 304 305 307 307 304 301 299 300 301 301 303 305 309
222 222 222 222 221 221 223 227 229 229 227 226 227 230 232 234 236 235 232 230 232 234 236 239 240 237 236 237 236 234 234 236 239 242 246 249 253 256 258 259 260 261 262 264 268 271 269 265 265 269 270 272 276 279 283 287 290 293 295 293 292 293 293 292 291 292 295 297 299 300 300 300 303 306 307 306 303 298 296 296 298 299 301 305 309
221 220 220 221 221 221 222 224 227 228 228 226 226 228 231 234 235 238 238 236 235 236 237 237 239 238 237 237 238 237 235 236 238 240 244 248 252 255 257 258 259 261 262 263 266 269 268 263 262 265 268 271 275 278 281 286 291 293 292 291 290 292 294 294 294 294 296 298 299 299 299 300 302 304 304 303 301 296 292 293 295 298 301 304 309
221 220 221 221 222 222 223 224 226 228 229 228 228 228 230 233 233 236 240 240 237 237 238 238 239 241 240 239 240 240 238 238 239 240 243 246 249 253 255 256 257 260 262 262 264 267 267 262 260 263 267 271 275 278 281 286 290 291 290 289 289 291 293 293 292 294 297 298 297 298 298 297 298 300 302 302 299 294 291 291 293 297 300 304 308
222 221 222 223 223 223 223 224 226 228 229 230 230 230 231 233 234 236 238 240 239 240 240 239 239 240 240 239 239 239 239 239 240 241 245 247 246 248 253 254 255 258 260 261 263 266 267 263 262 264 267 270 273 276 280 284 288 290 290 288 287 288 289 289 291 295 298 296 296 297 297 295 296 299 301 301 297 292 291 291 293 295 298 302 306
225 223 223 224 224 223 223 224 225 227 229 230 231 231 232 234 235 236 237 239 241 242 242 243 243 242 240 239 238 237 238 239 240 241 245 247 245 246 250 253 254 256 258 259 261 265 266 263 260 262 265 268 270 273 277 281 285 290 293 290 286 285 287 290 293 296 297 294 294 295 295 296 298 299 299 297 293 290 291 292 292 292 295 300 304
228 227 225 224 224 224 223 224 225 227 229 230 231 232 233 234 236 236 237 238 239 240 242 244 247 247 244 242 241 239 238 239 240 242 244 245 246 248 250 252 254 256 258 259 260 264 265 262 259 261 264 266 269 273 277 280 282 288 293 293 289 288 291 292 293 293 293 291 291 293 295 299 300 297 292 291 289 287 289 292 291 289 291 296 300
227 227 227 225 225 226 226 226 227 227 228 230 230 232 233 235 237 238 239 240 240 240 240 243 246 249 250 250 249 247 244 243 243 244 245 247 249 249 250 251 253 256 258 260 260 262 263 261 258 261 264 267 270 274 277 279 282 286 290 291 290 290 291 292 291 289 289 289 290 292 295 299 300 295 289 288 286 285 288 291 290 286 287 292 296
226 226 228 227 227 227 228 229 230 230 230 231 231 232 233 235 237 239 240 242 242 242 242 242 244 247 251 255 257 254 249 247 246 246 246 247 248 249 250 251 253 255 257 259 259 259 260 259 259 262 265 267 269 273 277 280 283 285 286 287 288 289 291 292 290 288 288 289 290 292 292 295 298 296 289 284 283 283 286 289 288 283 283 288 292
225 225 226 227 228 230 231 232 233 233 234 235 234 234 234 235 237 240 242 243 244 244 244 244 244 245 246 251 255 253 249 247 245 244 243 244 245 247 249 251 253 254 255 256 257 258 258 259 261 262 263 264 268 273 278 281 283 283 283 285 286 288 291 293 291 289 287 287 289 290 290 291 296 297 290 281 278 281 285 287 285 280 279 283 287
222 225 229 231 232 233 232 233 236 236 237 239 239 239 238 237 237 239 241 243 244 244 245 246 246 245 244 247 250 250 248 245 243 241 241 243 244 246 248 249 251 253 253 254 256 257 258 258 260 261 262 264 269 275 278 280 281 282 283 284 285 287 291 293 290 288 287 286 288 289 287 287 290 293 288 278 274 280 284 284 280 276 275 279 283
221 223 228 230 231 233 233 234 236 239 241 242 242 242 241 240 239 239 240 242 243 244 245 246 245 244 245 247 250 250 250 248 245 243 243 243 243 244 245 247 248 251 253 254 256 258 258 257 257 260 263 267 271 275 277 278 280 282 283 284 286 289 290 289 286 284 284 285 286 286 283 282 286 289 286 277 273 278 282 279 275 273 273 276 280
216 220 223 225 227 230 233 235 236 239 243 246 246 246 245 245 244 242 241 242 243 244 245 245 245 245 246 249 252 253 253 252 250 248 247 246 243 242 242 244 246 249 252 254 256 257 256 255 257 260 263 267 270 273 275 277 279 281 283 284 286 287 287 286 285 285 286 286 286 285 284 284 283 283 281 274 271 274 278 274 271 270 270 273 278
209 215 220 226 231 235 237 237 238 239 242 245 247 248 248 248 248 246 245 245 245 246 247 248 248 248 248 250 252 254 254 255 254 253 251 249 245 241 240 240 242 244 247 251 255 256 253 252 255 258 261 264 268 271 274 277 279 281 283 284 284 284 285 286 286 287 287 287 286 285 287 287 283 278 275 270 267 269 272 269 266 266 267 271 276
214 217 220 225 231 236 240 241 242 242 242 243 245 246 247 247 247 246 246 247 247 249 250 250 250 251 251 251 253 254 255 258 259 256 251 247 243 239 237 237 239 242 245 247 250 251 249 248 251 256 258 262 266 270 273 277 279 281 282 282 282 284 285 284 284 284 284 284 284 285 287 287 281 275 272 269 265 264 266 264 262 263 265 269 274
224 226 229 232 233 234 237 240 243 243 242 242 243 244 245 246 246 245 247 248 249 250 251 250 250 252 253 254 254 255 255 257 259 256 249 245 241 238 235 236 239 242 244 245 246 247 246 245 249 255 258 261 266 270 273 276 279 279 280 280 281 283 283 282 282 281 281 282 284 285 287 287 283 278 276 272 264 261 261 260 259 260 263 267 273
220 219 226 233 237 237 237 239 242 243 242 243 243 244 245 246 246 246 246 247 247 248 248 249 251 253 254 255 254 254 254 255 256 253 247 244 241 237 233 235 239 241 241 241 244 247 248 247 249 253 257 261 265 268 271 274 276 279 280 281 281 281 281 280 280 281 281 282 284 285 285 285 282 279 278 273 265 260 260 258 256 258 262 266 271
242 226 212 206 218 229 234 238 242 244 245 245 245 245 245 245 245 245 245 246 246 245 246 248 251 253 254 254 252 252 253 255 256 253 246 240 239 236 232 231 235 238 238 239 243 248 250 249 251 255 258 261 264 266 268 271 273 276 279 280 279 279 278 278 280 281 281 282 283 282 280 279 279 278 276 271 264 261 259 255 253 255 260 265 270
258 249 240 227 216 210 213 223 233 240 242 243 244 244 245 246 247 247 247 248 247 245 244 246 249 251 254 257 256 251 245 242 244 247 244 238 234 234 233 232 234 237 240 242 246 250 251 252 254 256 259 261 264 265 267 270 272 274 277 278 279 279 279 279 279 280 282 283 282 280 277 276 275 274 271 266 261 259 257 253 251 253 258 263 268
272 266 260 253 246 238 230 225 224 224 226 227 230 234 238 241 243 246 248 249 249 247 245 245 245 249 255 259 258 249 237 226 219 225 233 233 229 228 231 234 238 241 243 245 247 249 251 253 255 257 260 263 265 267 269 272 274 276 278 279 280 281 281 281 282 282 281 281 280 277 276 274 270 267 264 260 257 257 255 251 250 253 257 261 266
286 281 276 272 265 258 251 246 243 241 234 225 221 223 226 228 229 232 237 240 242 244 244 244 245 249 253 253 247 240 237 234 225 220 226 231 228 226 230 236 241 244 245 246 247 250 252 254 257 259 262 264 266 268 271 274 276 278 279 280 280 281 281 282 283 282 281 280 279 276 273 269 265 261 258 254 253 254 253 251 250 253 256 261 264
290 287 285 282 277 272 266 258 250 247 245 241 237 234 232 231 231 230 231 232 233 236 238 240 242 245 247 245 241 238 239 244 247 244 239 237 234 233 236 240 242 243 244 246 248 252 254 257 259 262 264 266 268 270 273 275 277 280 281 281 281 281 280 281 281 279 278 278 278 277 275 269 262 257 253 251 252 253 252 250 251 253 256 260 261
288 286 285 284 281 278 276 271 266 260 253 248 245 242 241 241 241 241 241 241 239 238 239 240 241 242 242 242 243 244 244 247 251 251 247 243 241 242 245 245 244 244 246 248 251 254 257 260 262 264 266 268 270 271 273 275 278 279 281 281 281 280 280 279 278 277 275 274 274 276 277 271 260 253 251 251 251 251 251 251 253 255 256 258 258
284 285 284 283 280 278 277 275 273 271 268 262 258 254 249 247 247 246 247 248 248 247 246 246 246 247 247 246 246 246 247 248 248 248 247 247 247 248 249 249 249 251 252 254 256 259 260 262 264 266 267 270 271 273 274 276 276 277 277 278 279 279 279 277 276 275 274 273 273 274 274 267 258 252 250 250 250 250 251 253 255 256 256 255 254
274 277 278 279 279 277 275 274 272 270 267 266 266 266 263 259 255 253 252 252 252 253 253 253 252 252 253 253 253 253 253 253 253 252 252 252 251 251 251 252 253 255 257 258 260 261 262 264 265 267 268 270 271 272 274 275 275 276 276 276 276 276 275 274 273 273 273 275 275 274 268 259 251 247 246 246 247 249 251 253 255 258 260 259 256
269 269 269 271 273 273 273 272 271 269 266 263 261 262 264 263 261 258 256 255 254 253 254 254 255 255 255 255 255 255 256 257 257 257 257 257 257 257 257 257 258 258 259 260 262 262 263 265 266 267 268 269 270 272 273 273 274 274 273 273 273 273 273 273 274 274 275 277 275 268 255 246 242 242 243 246 248 250 252 256 260 263 266 264 259
267 266 265 265 266 268 269 270 270 269 267 264 258 256 258 260 260 258 257 256 255 254 253 252 252 252 253 253 253 253 253 254 254 255 255 256 256 256 257 257 258 258 259 259 260 261 263 264 265 267 268 269 270 271 272 271 271 270 269 269 269 271 272 274 275 275 275 273 265 251 239 235 237 241 245 250 253 255 257 260 261 262 262 260 257
266 267 266 265 263 263 264 266 267 268 268 266 263 260 258 258 259 258 256 255 256 256 255 254 253 252 252 252 252 252 252 252 252 252 252 253 253 254 254 255 255 256 257 258 259 260 262 264 266 267 269 270 271 272 272 271 270 268 266 266 266 266 267 268 267 265 263 257 247 235 231 236 244 250 254 257 257 257 256 256 256 256 256 256 258
267 266 266 266 265 265 264 264 264 266 267 267 266 263 261 260 260 260 258 256 256 256 257 256 256 255 254 254 253 253 253 253 254 253 253 253 253 253 254 255 256 257 259 259 260 261 263 264 266 268 269 270 270 270 270 269 266 262 259 259 259 259 260 260 258 254 249 243 237 234 236 244 250 255 256 255 252 250 249 250 251 253 256 260 264
270 269 268 267 266 266 265 264 264 264 265 266 266 265 264 263 262 261 260 258 257 257 257 257 258 258 258 258 257 257 256 256 256 256 256 256 256 257 258 260 261 262 262 262 262 262 262 262 263 264 265 264 261 260 259 258 256 253 251 250 250 250 251 252 251 248 244 240 238 238 239 241 243 245 247 246 244 245 246 248 251 256 261 266 269
271 270 269 269 268 267 266 266 265 264 264 264 264 264 264 265 265 264 263 261 260 259 259 258 258 258 258 258 258 258 258 258 258 259 259 259 259 259 260 261 261 261 260 259 260 260 260 260 261 262 262 261 259 257 256 254 252 251 250 250 250 251 251 251 250 250 249 248 247 246 246 245 246 247 247 247 246 247 249 253 257 262 266 268 269
Height
5745 5749 5752 5756 5759 5762 5765 5769 5772 5774 5777 5779 5781 5783 5784 5785 5789 5793 5795 5796 5798 5799 5801 5802 5802 5804 5805 5807 5809 5812 5813 5815 5816 5816 5815 5814 5813 5812 5810 5809 5809 5808 5807 5807 5806 5805 5804 5804 5803 5803 5802 5801 5800 5799 5799 5798 5798 5797 5796 5796 5795 5794 5793 5793 5792 5791 5790 5789 5787 5785 5783 5781 5779 5777 5775 5772 5770 5767 5765 5762 5759 5757 5754 5750 5747
5739 5744 5747 5750 5754 5758 5761 5764 5767 5770 5772 5774 5777 5779 5780 5782 5786 5789 5791 5793 5794 5796 5797 5798 5799 5800 5801 5803 5805 5807 5810 5811 5813 5813 5812 5812 5811 5809 5808 5807 5806 5806 5805 5804 5803 5803 5802 5801 5801 5800 5800 5799 5798 5797 5797 5796 5795 5794 5794 5793 5792 5791 5790 5789 5789 5788 5787 5786 5784 5782 5780 5778 5776 5774 5772 5769 5767 5765 5762 5759 5757 5754 5751 5747 5743
5734 5738 5741 5745 5749 5752 5755 5759 5761 5764 5767 5769 5772 5775 5777 5780 5783 5785 5787 5788 5790 5792 5794 5796 5797 5797 5798 5799 5801 5803 5806 5808 5809 5810 5809 5809 5808 5807 5806 5805 5804 5803 5803 5802 5801 5800 5800 5799 5798 5798 5797 5797 5796 5795 5794 5793 5793 5792 5791 5790 5789 5788 5787 5786 5785 5784 5783 5782 5780 5779 5777 5775 5773 5771 5769 5767 5764 5762 5759 5756 5754 5751 5748 5745 5741
5727 5732 5736 5740 5743 5746 5749 5753 5756 5759 5762 5765 5767 5770 5773 5776 5779 5781 5783 5784 5786 5789 5791 5792 5793 5794 5795 5796 5797 5799 5802 5804 5806 5806 5807 5806 5806 5804 5803 5802 5801 5801 5800 5799 5799 5798 5797 5797 5796 5795 5795 5794 5793 5792 5791 5791 5790 5789 5788 5787 5786 5785 5784 5783 5782 5781 5780 5779 5777 5775 5773 5771 5770 5768 5766 5764 5761 5759 5756 5753 5751 5748 5745 5743 5739
5720 5725 5730 5734 5737 5741 5744 5747 5751 5754 5757 5760 5763 5765 5769 5771 5774 5777 5778 5780 5782 5785 5787 5789 5790 5791 5792 5793 5794 5795 5798 5801 5803 5803 5804 5804 5803 5802 5801 5800 5799 5798 5798 5797 5796 5795 5795 5794 5793 5792 5792 5791 5790 5789 5789 5788 5787 5786 5785 5784 5783 5782 5781 5780 5779 5778 5777 5776 5774 5772 5770 5768 5766 5765 5763 5761 5758 5756 5753 5750 5748 5745 5743 5740 5738
5716 5719 5723 5728 5732 5735 5739 5742 5746 5750 5753 5755 5758 5761 5764 5767 5769 5772 5774 5776 5779 5781 5783 5785 5787 5788 5789 5789 5790 5792 5794 5797 5799 5800 5801 5801 5801 5800 5798 5798 5797 5796 5795 5794 5793 5793 5792 5791 5790 5790 5789 5788 5787 5787 5786 5785 5784 5783 5782 5781 5780 5779 5778 5777 5776 5775 5774 5772 5771 5768 5766 5765 5763 5761 5759 5757 5755 5753 5750 5748 5745 5742 5740 5738 5736
5712 5714 5716 5721 5726 5730 5734 5738 5741 5745 5748 5751 5753 5756 5759 5762 5765 5768 5770 5771 5774 5777 5779 5781 5783 5785 5785 5785 5786 5788 5790 5792 5795 5797 5797 5798 5798 5797 5796 5795 5794 5794 5793 5792 5791 5790 5790 5789 5788 5787 5786 5785 5784 5784 5783 5783 5782 5781 5779 5778 5777 5776 5775 5774 5773 5772 5771 5769 5767 5765 5763 5762 5760 5757 5756 5754 5752 5750 5748 5745 5743 5740 5738 5736 5733
5706 5710 5713 5717 5722 5727 5731 5733 5736 5740 5743 5746 5748 5751 5754 5757 5760 5763 5764 5766 5770 5773 5775 5777 5779 5780 5781 5781 5782 5783 5785 5788 5791 5793 5794 5795 5795 5795 5794 5793 5792 5791 5790 5789 5789 5788 5787 5787 5786 5785 5783 5782 5781 5781 5780 5780 5779 5778 5777 5776 5775 5774 5773 5771 5770 5769 5768 5766 5765 5763 5761 5759 5757 5754 5753 5751 5749 5747 5745 5743 5740 5737 5735 5733 5731
5698 5702 5707 5713 5719 5723 5726 5728 5731 5734 5737 5740 5743 5747 5750 5753 5756 5758 5760 5762 5765 5768 5771 5773 5774 5775 5776 5777 5778 5778 5781 5784 5787 5789 5790 5791 5792 5792 5791 5790 5789 5789 5788 5787 5786 5785 5785 5784 5783 5782 5781 5780 5779 5778 5777 5777 5776 5775 5774 5774 5773 5772 5770 5768 5767 5766 5765 5764 5762 5761 5759 5757 5754 5752 5750 5748 5746 5744 5742 5739 5737 5734 5732 5730 5728
5692 5693 5697 5704 5712 5717 5719 5722 5725 5728 5731 5735 5739 5742 5745 5748 5751 5754 5756 5758 5761 5764 5766 5767 5769 5770 5772 5773 5773 5774 5777 5780 5783 5784 5786 5787 5788 5788 5788 5788 5787 5786 5785 5784 5784 5783 5782 5782 5781 5780 5778 5777 5776 5775 5774 5773 5773 5772 5771 5770 5770 5768 5767 5766 5764 5763 5762 5761 5760 5758 5757 5754 5751 5749 5747 5745 5743 5741 5738 5735 5733 5731 5729 5727 5725
5687 5687 5688 5693 5700 5707 5711 5715 5719 5722 5726 5730 5734 5737 5740 5743 5747 5749 5752 5754 5756 5759 5761 5762 5764 5766 5767 5768 5769 5770 5773 5776 5778 5780 5782 5783 5784 5784 5784 5784 5784 5783 5782 5782 5781 5780 5780 5779 5778 5777 5776 5775 5773 5772 5771 5770 5770 5769 5768 5767 5766 5765 5764 5763 5762 5761 5760 5759 5757 5755 5754 5751 5749 5747 5744 5742 5740 5737 5734 5732 5730 5728 5726 5724 5721
5681 5684 5685 5685 5690 5698 5705 5710 5714 5717 5721 5725 5729 5732 5735 5738 5741 5744 5746 5749 5751 5753 5755 5757 5759 5761 5763 5764 5765 5767 5770 5772 5774 5775 5777 5779 5780 5781 5781 5780 5780 5780 5779 5779 5778 5777 5777 5776 5775 5774 5773 5772 5771 5770 5769 5768 5766 5765 5765 5764 5763 5762 5761 5760 5759 5758 5757 5756 5754 5752 5750 5748 5747 5744 5742 5740 5737 5734 5731 5729 5727 5725 5723 5721 5719
5674 5679 5681 5682 5685 5692 5700 5705 5710 5714 5717 5721 5724 5727 5730 5733 5736 5739 5742 5744 5746 5748 5750 5752 5754 5756 5758 5759 5761 5763 5765 5768 5769 5771 5773 5774 5776 5776 5777 5777 5777 5777 5776 5775 5775 5774 5774 5773 5772 5772 5770 5769 5768 5767 5766 5765 5763 5762 5761 5761 5760 5759 5758 5757 5756 5755 5753 5752 5751 5749 5747 5745 5744 5742 5739 5737 5734 5731 5729 5727 5724 5722 5720 5718 5716
5668 5672 5676 5680 5684 5689 5694 5699 5704 5708 5712 5715 5718 5721 5724 5727 5730 5733 5736 5738 5740 5742 5744 5747 5749 5751 5753 5755 5757 5759 5761 5763 5764 5766 5768 5770 5771 5772 5772 5773 5774 5773 5772 5772 5771 5771 5770 5769 5769 5768 5767 5765 5764 5763 5762 5761 5760 5759 5758 5757 5756 5755 5754 5753 5752 5751 5749 5748 5747 5745 5743 5742 5741 5738 5736 5734 5732 5729 5727 5724 5721 5720 5718 5715 5712
5663 5667 5671 5676 5681 5684 5687 5691 5695 5700 5704 5707 5710 5714 5717 5721 5724 5727 5729 5731 5734 5737 5739 5742 5744 5747 5749 5751 5752 5754 5756 5758 5759 5761 5763 5765 5766 5767 5768 5769 5770 5770 5769 5768 5768 5767 5766 5766 5765 5764 5763 5762 5760 5759 5758 5757 5756 5756 5755 5753 5753 5752 5750 5749 5748 5746 5745 5744 5743 5742 5740 5739 5737 5735 5732 5730 5728 5726 5724 5722 5719 5717 5715 5712 5709
5658 5662 5666 5671 5675 5678 5680 5683 5687 5692 5695 5697 5700 5704 5708 5712 5716 5720 5723 5725 5728 5731 5733 5735 5738 5741 5743 5745 5747 5749 5752 5753 5754 5756 5758 5759 5761 5762 5763 5764 5765 5766 5766 5765 5764 5763 5763 5762 5761 5761 5759 5758 5756 5755 5754 5753 5752 5752 5751 5750 5749 5748 5747 5745 5744 5742 5741 5740 5739 5738 5737 5735 5733 5731 5729 5727 5725 5723 5721 5719 5717 5714 5712 5709 5707
5652 5656 5660 5664 5668 5671 5673 5677 5682 5687 5690 5691 5692 5695 5699 5703 5708 5712 5716 5720 5722 5725 5728 5730 5733 5736 5738 5740 5742 5745 5747 5748 5750 5752 5753 5754 5756 5757 5758 5759 5760 5761 5761 5761 5760 5759 5759 5758 5758 5757 5756 5755 5753 5751 5749 5749 5748 5748 5747 5746 5745 5745 5743 5742 5740 5738 5737 5736 5735 5734 5733 5731 5730 5728 5726 5724 5722 5719 5718 5716 5714 5712 5709 5707 5704
5645 5649 5653 5658 5661 5664 5667 5671 5675 5679 5683 5687 5689 5691 5693 5696 5700 5704 5708 5713 5717 5720 5723 5725 5727 5729 5731 5734 5737 5739 5742 5743 5745 5747 5748 5750 5751 5752 5753 5754 5755 5756 5756 5756 5756 5756 5755 5754 5754 5753 5753 5751 5749 5747 5746 5745 5744 5744 5743 5742 5742 5741 5740 5737 5736 5735 5734 5733 5731 5730 5729 5728 5726 5724 5722 5721 5719 5716 5714 5713 5711 5709 5706 5704 5702
5639 5643 5647 5651 5654 5657 5660 5664 5669 5672 5675 5679 5684 5688 5690 5692 5694 5697 5700 5705 5710 5713 5716 5718 5721 5723 5725 5728 5731 5733 5735 5737 5739 5741 5743 5744 5745 5746 5747 5748 5750 5751 5751 5751 5752 5752 5751 5750 5750 5749 5749 5748 5745 5744 5742 5741 5741 5740 5739 5739 5739 5738 5735 5733 5732 5731 5730 5729 5727 5726 5725 5724 5722 5720 5718 5717 5715 5713 5710 5709 5707 5705 5703 5701 5699
5633 5636 5640 5644 5647 5650 5653 5657 5663 5667 5670 5673 5678 5682 5686 5688 5690 5692 5694 5697 5702 5706 5708 5711 5714 5716 5718 5721 5723 5726 5728 5731 5733 5735 5737 5738 5739 5740 5741 5743 5744 5745 5745 5746 5747 5747 5747 5746 5746 5745 5745 5743 5741 5739 5738 5737 5737 5735 5735 5734 5734 5733 5730 5729 5728 5727 5726 5725 5723 5722 5721 5720 5718 5716 5714 5712 5710 5708 5707 5705 5703 5701 5699 5697 5695
5625 5628 5632 5636 5639 5643 5646 5650 5655 5660 5665 5669 5671 5674 5678 5682 5686 5688 5689 5691 5694 5698 5701 5704 5707 5710 5712 5713 5716 5718 5721 5723 5726 5729 5730 5732 5733 5733 5734 5737 5738 5739 5739 5740 5741 5743 5743 5742 5742 5741 5740 5739 5737 5735 5734 5733 5732 5731 5730 5729 5728 5727 5726 5725 5724 5723 5722 5720 5719 5718 5717 5715 5713 5712 5710 5708 5706 5704 5703 5701 5700 5698 5696 5694 5692
5616 5620 5624 5628 5632 5635 5639 5642 5647 5652 5657 5662 5666 5668 5671 5675 5680 5683 5685 5686 5687 5690 5693 5697 5700 5703 5705 5706 5709 5712 5714 5716 5719 5722 5724 5725 5726 5727 5728 5730 5731 5732 5733 5735 5736 5738 5738 5737 5737 5736 5735 5734 5733 5731 5730 5729 5728 5727 5727 5724 5722 5722 5721 5720 5720 5719 5718 5717 5715 5714 5712 5710 5709 5707 5705 5703 5702 5700 5699 5697 5696 5694 5693 5690 5689
5610 5613 5617 5621 5624 5628 5632 5635 5639 5644 5649 5655 5659 5663 5666 5670 5673 5677 5681 5682 5682 5683 5687 5689 5692 5696 5699 5700 5703 5706 5708 5710 5712 5715 5717 5719 5720 5720 5721 5723 5724 5725 5727 5729 5731 5732 5732 5732 5732 5731 5730 5729 5728 5728 5726 5725 5724 5723 5722 5720 5718 5717 5717 5716 5715 5714 5714 5713 5711 5709 5707 5706 5704 5703 5701 5699 5697 5696 5695 5693 5692 5690 5689 5687 5685
5605 5607 5611 5615 5619 5622 5626 5630 5633 5637 5642 5647 5652 5656 5660 5663 5665 5667 5671 5673 5675 5677 5680 5682 5685 5689 5692 5695 5698 5700 5702 5704 5707 5709 5711 5712 5713 5714 5714 5715 5717 5719 5721 5723 5725 5726 5726 5726 5726 5726 5725 5724 5724 5723 5722 5721 5720 5719 5717 5716 5714 5713 5713 5712 5711 5710 5709 5709 5707 5705 5703 5702 5700 5698 5696 5695 5693 5692 5690 5689 5687 5686 5685 5683 5681
5600 5603 5607 5611 5615 5618 5621 5625 5628 5632 5636 5641 5645 5650 5653 5655 5657 5659 5662 5665 5668 5671 5673 5675 5678 5681 5685 5688 5691 5694 5696 5698 5700 5702 5704 5706 5707 5707 5707 5707 5709 5712 5714 5717 5719 5720 5720 5719 5719 5720 5720 5719 5718 5717 5717 5716 5715 5714 5713 5711 5710 5709 5708 5707 5706 5705 5705 5704 5702 5700 5699 5697 5695 5693 5692 5690 5689 5687 5686 5684 5683 5682 5681 5680 5678
5596 5599 5603 5606 5610 5614 5617 5620 5624 5627 5631 5635 5639 5643 5645 5647 5650 5653 5656 5659 5663 5666 5668 5669 5671 5673 5676 5679 5682 5686 5688 5691 5693 5696 5698 5699 5700 5701 5700 5700 5702 5705 5707 5710 5713 5713 5713 5713 5713 5714 5713 5713 5712 5712 5712 5711 5710 5709 5708 5707 5705 5704 5704 5702 5701 5701 5700 5699 5697 5695 5694 5692 5690 5689 5688 5686 5685 5683 5681 5680 5679 5678 5677 5676 5675
5591 5595 5598 5602 5605 5608 5612 5616 5619 5623 5626 5629 5633 5636 5638 5641 5643 5645 5649 5653 5656 5659 5660 5662 5665 5668 5671 5673 5676 5678 5681 5684 5686 5689 5691 5693 5694 5694 5693 5692 5694 5697 5700 5703 5705 5705 5705 5706 5707 5707 5707 5707 5707 5707 5707 5706 5705 5704 5703 5702 5701 5700 5699 5698 5697 5696 5695 5693 5691 5690 5688 5687 5685 5684 5683 5682 5680 5678 5676 5676 5675 5674 5673 5673 5671
5586 5589 5593 5597 5600 5603 5607 5611 5614 5617 5621 5624 5626 5629 5632 5634 5636 5639 5643 5647 5650 5652 5654 5656 5659 5663 5666 5670 5672 5673 5676 5679 5682 5685 5687 5688 5688 5687 5685 5685 5687 5689 5693 5696 5697 5697 5698 5699 5700 5701 5701 5702 5702 5702 5702 5701 5700 5699 5698 5697 5696 5696 5694 5693 5691 5690 5689 5688 5685 5684 5683 5681 5680 5678 5677 5676 5675 5673 5672 5671 5670 5670 5669 5669 5667
5579 5584 5588 5592 5596 5600 5603 5606 5609 5612 5615 5618 5621 5624 5627 5629 5631 5634 5636 5639 5643 5646 5648 5651 5654 5657 5660 5664 5667 5668 5671 5674 5677 5679 5681 5680 5679 5678 5678 5678 5680 5683 5686 5688 5688 5689 5690 5692 5694 5696 5697 5698 5697 5697 5696 5695 5694 5693 5692 5691 5690 5689 5689 5687 5685 5684 5683 5681 5679 5679 5678 5676 5674 5673 5672 5671 5670 5668 5667 5667 5666 5665 5665 5664 5663
5575 5580 5585 5589 5593 5596 5599 5602 5605 5608 5611 5613 5616 5619 5622 5624 5626 5628 5630 5633 5635 5638 5641 5644 5648 5650 5653 5656 5658 5659 5661 5665 5667 5668 5669 5669 5669 5670 5672 5672 5673 5675 5677 5678 5679 5681 5683 5686 5688 5690 5691 5692 5692 5691 5690 5689 5688 5687 5686 5685 5684 5683 5683 5682 5680 5678 5677 5675 5674 5673 5672 5671 5669 5668 5667 5666 5664 5663 5663 5662 5661 5661 5660 5660 5658
5574 5579 5583 5586 5589 5593 5595 5598 5601 5604 5606 5608 5610 5612 5615 5618 5620 5622 5624 5626 5628 5631 5634 5637 5640 5643 5646 5647 5647 5648 5650 5653 5655 5656 5657 5659 5662 5664 5665 5666 5666 5667 5669 5670 5672 5675 5678 5681 5683 5684 5685 5685 5685 5685 5684 5683 5682 5681 5680 5678 5677 5677 5677 5676 5674 5672 5670 5669 5669 5668 5667 5665 5663 5662 5661 5660 5658 5657 5657 5657 5656 5656 5655 5655 5654
5571 5576 5580 5583 5586 5589 5591 5594 5597 5599 5601 5602 5604 5606 5608 5611 5613 5616 5619 5621 5623 5624 5627 5629 5632 5635 5637 5638 5639 5640 5642 5644 5647 5648 5650 5653 5655 5656 5657 5657 5658 5660 5662 5663 5666 5670 5673 5675 5677 5678 5678 5678 5679 5678 5677 5676 5676 5675 5673 5672 5671 5671 5670 5670 5668 5667 5665 5664 5663 5662 5661 5660 5658 5656 5655 5654 5653 5652 5652 5651 5651 5650 5650 5650 5649
5567 5571 5575 5578 5581 5584 5587 5589 5592 5594 5596 5598 5599 5601 5603 5605 5607 5610 5613 5615 5617 5618 5620 5622 5625 5627 5629 5631 5632 5634 5636 5637 5639 5641 5644 5646 5647 5648 5648 5650 5651 5654 5656 5657 5660 5665 5667 5668 5669 5671 5671 5672 5672 5671 5671 5670 5669 5668 5667 5666 5666 5665 5664 5663 5662 5660 5659 5658 5656 5655 5654 5653 5651 5649 5649 5648 5647 5647 5647 5646 5646 5645 5645 5645 5644
5566 5569 5573 5576 5578 5580 5582 5584 5586 5588 5590 5592 5593 5595 5597 5599 5601 5604 5606 5608 5610 5612 5614 5617 5619 5620 5622 5623 5624 5626 5628 5629 5630 5633 5635 5637 5638 5640 5641 5642 5643 5646 5649 5651 5655 5658 5659 5660 5663 5664 5664 5664 5665 5664 5664 5663 5663 5662 5661 5660 5659 5658 5658 5658 5656 5654 5652 5650 5649 5648 5646 5643 5642 5642 5642 5642 5641 5641 5641 5641 5641 5641 5641 5640 5639
5566 5569 5571 5574 5576 5577 5578 5580 5582 5584 5586 5587 5588 5590 5591 5593 5595 5598 5600 5602 5605 5607 5609 5611 5613 5614 5616 5616 5617 5619 5620 5620 5622 5623 5625 5626 5628 5631 5633 5634 5636 5639 5642 5645 5648 5650 5650 5652 5655 5656 5656 5657 5657 5657 5657 5657 5656 5656 5655 5654 5653 5652 5651 5651 5650 5649 5647 5645 5643 5642 5639 5636 5634 5635 5636 5636 5636 5636 5635 5635 5636 5636 5636 5636 5635
5565 5567 5569 5571 5572 5573 5574 5576 5578 5580 5582 5583 5584 5585 5586 5588 5590 5592 5594 5597 5599 5601 5603 5605 5606 5608 5609 5610 5611 5612 5613 5613 5614 5615 5615 5617 5620 5622 5626 5628 5630 5633 5636 5639 5641 5642 5643 5644 5647 5648 5649 5650 5651 5650 5650 5650 5649 5649 5648 5648 5647 5646 5645 5644 5643 5642 5641 5640 5638 5637 5635 5633 5632 5631 5630 5630 5630 5630 5630 5629 5630 5631 5631 5630 5630
5564 5565 5566 5567 5568 5569 5570 5571 5572 5574 5577 5578 5579 5581 5582 5583 5585 5587 5589 5591 5593 5595 5597 5598 5600 5600 5601 5602 5604 5606 5607 5606 5606 5606 5608 5611 5613 5617 5621 5624 5625 5627 5630 5633 5634 5635 5636 5638 5640 5641 5642 5643 5644 5644 5644 5643 5643 5642 5641 5641 5640 5639 5638 5637 5637 5636 5635 5634 5633 5632 5630 5629 5628 5627 5626 5624 5624 5624 5624 5624 5625 5625 5625 5625 5624
5563 5564 5564 5565 5565 5565 5566 5567 5567 5569 5571 5573 5575 5576 5578 5579 5581 5582 5584 5586 5588 5589 5591 5592 5594 5594 5594 5595 5597 5600 5601 5601 5599 5599 5601 5605 5608 5611 5615 5618 5618 5620 5623 5624 5626 5627 5629 5631 5632 5634 5635 5636 5637 5637 5637 5637 5636 5635 5635 5634 5634 5633 5632 5631 5630 5629 5627 5626 5626 5625 5624 5622 5621 5620 5619 5618 5618 5618 5618 5618 5619 5619 5619 5619 5619
5562 5562 5563 5563 5563 5562 5563 5563 5564 5565 5566 5568 5569 5571 5573 5574 5576 5577 5579 5580 5582 5584 5585 5586 5587 5589 5589 5590 5592 5594 5596 5595 5593 5592 5594 5598 5601 5604 5607 5610 5612 5614 5615 5617 5619 5621 5622 5624 5625 5626 5627 5628 5629 5629 5630 5630 5629 5628 5628 5627 5626 5626 5625 5624 5624 5622 5620 5618 5618 5618 5617 5616 5614 5612 5611 5611 5611 5611 5611 5612 5613 5614 5614 5614 5613
5560 5560 5560 5560 5561 5561 5561 5561 5562 5563 5563 5564 5565 5567 5569 5570 5572 5573 5574 5575 5577 5578 5580 5581 5582 5583 5584 5585 5587 5589 5591 5590 5588 5586 5587 5591 5596 5599 5602 5605 5607 5609 5610 5611 5613 5614 5616 5617 5618 5619 5620 5620 5621 5621 5621 5621 5621 5620 5620 5619 5618 5617 5616 5616 5615 5615 5612 5610 5610 5610 5609 5608 5607 5604 5604 5604 5604 5604 5605 5606 5607 5608 5608 5608 5608
5557 5557 5557 5557 5558 5558 5558 5559 5560 5560 5561 5561 5562 5563 5565 5566 5567 5568 5569 5570 5571 5572 5574 5575 5577 5578 5579 5580 5582 5584 5585 5585 5584 5583 5585 5587 5591 5595 5598 5600 5602 5603 5604 5606 5607 5608 5610 5610 5611 5612 5612 5613 5613 5613 5613 5613 5612 5611 5611 5610 5609 5609 5608 5607 5607 5606 5604 5603 5602 5602 5601 5600 5598 5597 5598 5598 5598 5598 5600 5601 5602 5603 5603 5603 5602
5555 5555 5555 5555 5555 5556 5556 5556 5557 5557 5558 5558 5559 5560 5561 5562 5563 5564 5564 5565 5566 5567 5569 5570 5572 5573 5574 5575 5577 5578 5579 5579 5579 5580 5582 5584 5587 5590 5592 5594 5596 5597 5599 5600 5601 5602 5603 5604 5605 5605 5605 5605 5605 5605 5605 5604 5603 5602 5601 5601 5601 5600 5599 5599 5598 5597 5597 5596 5596 5595 5593 5592 5591 5591 5592 5592 5593 5594 5595 5595 5596 5597 5597 5597 5596
5554 5554 5553 5553 5553 5554 5554 5554 5554 5554 5555 5555 5556 5557 5557 5558 5558 5559 5560 5561 5563 5564 5565 5566 5567 5569 5570 5571 5572 5573 5574 5575 5575 5576 5578 5580 5582 5584 5586 5588 5590 5591 5593 5594 5596 5596 5597 5598 5598 5598 5597 5597 5597 5597 5596 5596 5595 5593 5592 5592 5591 5591 5591 5591 5590 5590 5589 5589 5589 5588 5586 5585 5585 5586 5586 5586 5587 5589 5589 5589 5590 5591 5591 5591 5591
5552 5552 5552 5552 5552 5552 5552 5551 5552 5552 5552 5552 5552 5553 5553 5554 5554 5555 5556 5557 5558 5559 5561 5562 5563 5563 5564 5566 5567 5568 5569 5570 5571 5572 5574 5575 5577 5578 5580 5582 5584 5585 5587 5588 5589 5589 5590 5590 5590 5590 5590 5589 5588 5588 5588 5587 5587 5586 5584 5583 5583 5583 5582 5582 5581 5581 5581 5581 5581 5580 5579 5579 5579 5580 5580 5580 5582 5583 5583 5583 5584 5585 5585 5585 5585
5550 5550 5550 5550 5550 5549 5549 5549 5550 5550 5550 5550 5550 5549 5549 5550 5550 5551 5552 5553 5553 5554 5555 5556 5557 5558 5559 5560 5561 5562 5564 5565 5566 5567 5568 5570 5571 5572 5574 5575 5577 5578 5579 5580 5581 5581 5581 5581 5581 5581 5581 5581 5580 5580 5579 5578 5578 5577 5576 5575 5574 5574 5574 5573 5573 5572 5572 5572 5572 5572 5572 5572 5573 5573 5573 5574 5576 5577 5577 5577 5578 5579 5579 5579 5579
5547 5547 5547 5547 5547 5547 5547 5547 5547 5547 5548 5548 5549 5548 5547 5547 5547 5548 5549 5549 5549 5550 5550 5551 5552 5553 5554 5555 5556 5557 5558 5559 5560 5561 5563 5564 5565 5566 5567 5568 5570 5571 5571 5572 5572 5573 5572 5572 5572 5572 5572 5571 5571 5571 5570 5570 5569 5568 5567 5566 5566 5565 5565 5564 5564 5564 5564 5564 5565 5565 5565 5565 5565 5566 5567 5568 5570 5571 5572 5572 5573 5573 5573 5573 5574
5543 5543 5544 5544 5544 5544 5544 5544 5544 5544 5544 5545 5546 5546 5545 5545 5545 5546 5547 5547 5546 5547 5547 5548 5549 5550 5550 5551 5551 5552 5553 5553 5554 5555 5557 5558 5559 5560 5561 5562 5562 5563 5563 5563 5564 5564 5564 5564 5564 5564 5563 5563 5562 5562 5561 5561 5560 5560 5559 5558 5558 5558 5557 5557 5557 5558 5558 5558 5558 5559 5560 5559 5560 5561 5563 5564 5565 5566 5567 5567 5568 5568 5567 5567 5568
5539 5539 5539 5540 5540 5540 5541 5541 5540 5540 5540 5541 5542 5543 5543 5542 5542 5543 5544 5544 5544 5543 5544 5544 5545 5546 5546 5547 5547 5547 5548 5548 5549 5550 5551 5552 5553 5554 5555 5555 5555 5555 5555 5556 5556 5556 5557 5557 5557 5556 5555 5555 5554 5554 5553 5553 5552 5552 5552 5552 5551 5551 5552 5552 5552 5552 5553 5553 5554 5555 5556 5556 5557 5558 5559 5559 5560 5560 5561 5561 5561 5562 5562 5562 5562
5534 5534 5534 5535 5535 5535 5536 5536 5536 5536 5536 5536 5537 5538 5538 5539 5538 5539 5540 5540 5540 5540 5540 5540 5540 5541 5541 5542 5542 5543 5543 5544 5544 5545 5546 5547 5548 5548 5549 5549 5549 5549 5549 5550 5550 5550 5550 5550 5550 5550 5549 5549 5548 5548 5547 5547 5547 5547 5546 5546 5546 5546 5546 5546 5547 5548 5549 5550 5551 5552 5553 5554 5554 5554 5555 5555 5555 5555 5556 5556 5556 5556 5557 5557 5556
5530 5530 5530 5530 5530 5530 5531 5531 5531 5531 5531 5531 5532 5532 5533 5533 5534 5534 5534 5535 5535 5535 5535 5535 5536 5536 5536 5537 5537 5538 5538 5539 5539 5540 5541 5541 5542 5543 5543 5543 5543 5544 5544 5544 5545 5545 5545 5545 5545 5545 5544 5544 5544 5543 5543 5543 5542 5542 5542 5541 5541 5541 5541 5541 5542 5543 5544 5545 5546 5547 5548 5549 5549 5549 5550 5550 5550 5550 5550 5551 5551 5551 5551 5551 5550
5526 5526 5526 5525 5525 5525 5526 5526 5526 5526 5526 5526 5526 5527 5527 5528 5528 5528 5528 5529 5530 5530 5530 5530 5531 5531 5531 5531 5531 5532 5533 5533 5534 5534 5535 5536 5536 5537 5538 5538 5538 5539 5539 5539 5539 5539 5539 5539 5539 5539 5539 5539 5539 5539 5539 5538 5538 5538 5537 5537 5537 5537 5537 5537 5537 5538 5539 5540 5541 5542 5543 5543 5544 5544 5545 5545 5545 5545 5545 5545 5545 5545 5545 5544 5544